Home   Weather   Hart   Past weeks
Flag for USA

Past Weather in Hart, Michigan, USA — Yesterday and Last 2 Weeks

Now
61 °F

Clear.


Feels Like: 61 °F
Forecast: 62 / 41 °F
Wind: 7 mph from South

Location: Mason County Airport

Current Time: Oct 19, 2019 at 6:28:48 pm

Latest Report: Oct 19, 2019 at 5:58 pm


Visibility: 10 mi

Pressure: 29.74 "Hg

Humidity: 52%

Dew Point: 43 °F

Location of HartLocation

Past Weather in Hart — Graph

°F

Hart Temperature Yesterday

Maximum temperature yesterday: 54 °F (at 1:55 pm)
Minimum temperature yesterday: 41 °F (at 10:19 pm)
Average temperature yesterday: 46 °F

High & Low Weather Summary for the Past Weeks

 TemperatureHumidityPressure
High72 °F (Oct 10, 3:55 pm)98% (Oct 14, 11:15 pm)30.40 "Hg (Oct 14, 11:15 pm)
Low32 °F (Oct 14, 11:15 pm)40% (Oct 8, 2:59 pm)29.57 "Hg (Oct 16, 4:19 am)
Average50 °F76%29.98 "Hg
* Reported Oct 4 5:35 pm — Oct 19 5:15 pm, Hart. Weather by CustomWeather, © 2019

Note: Actual official high and low records may vary slightly from our data, if they occured in-between our weather recording intervals... More about our weather records

Advertising

Hart Weather History for the Previous 24 Hours

Scroll right to see more
 ConditionsComfort  
Time TempWeatherWind HumidityBarometerVisibility
5:15 pm
Sat, Oct 19
62 °FClear.13 mph48%29.75 "Hg10 mi
4:38 pm63 °FClear.12 mph47%29.75 "Hg10 mi
4:20 pm62 °FClear.13 mph48%29.75 "Hg10 mi
3:56 pm63 °FClear.10 mph46%29.75 "Hg10 mi
3:36 pm63 °FClear.12 mph45%29.76 "Hg10 mi
3:17 pm62 °FClear.10 mph49%29.77 "Hg10 mi
2:36 pm61 °FSunny.14 mph52%29.78 "Hg10 mi
1:56 pm60 °FSunny.13 mph56%29.80 "Hg10 mi
1:38 pm59 °FSunny.12 mph58%29.81 "Hg10 mi
1:15 pm57 °FSunny.9 mph60%29.82 "Hg10 mi
12:55 pm57 °FSunny.10 mph61%29.83 "Hg10 mi
12:36 pm55 °FSunny.12 mph64%29.83 "Hg10 mi
12:17 pm54 °FSunny.9 mph66%29.84 "Hg10 mi
11:59 am53 °FSunny.12 mph67%29.84 "Hg10 mi
11:35 am52 °FSunny.7 mph69%29.85 "Hg10 mi
11:15 am51 °FSunny.8 mph71%29.85 "Hg10 mi
10:56 am50 °FSunny.7 mph71%29.85 "Hg10 mi
10:38 am49 °FSunny.9 mph73%29.86 "Hg10 mi
10:20 am48 °FSunny.7 mph74%29.86 "Hg10 mi
9:55 am47 °FSunny.5 mph76%29.87 "Hg10 mi
9:35 am46 °FSunny.5 mph80%29.87 "Hg10 mi
8:59 am44 °FSunny.6 mph82%29.88 "Hg10 mi
8:36 am44 °FSunny.6 mph83%29.88 "Hg10 mi
8:15 am43 °FSunny.5 mph83%29.89 "Hg10 mi
7:57 am44 °FSunny.6 mph79%29.88 "Hg10 mi
7:39 am44 °FSunny.8 mph79%29.89 "Hg10 mi
7:16 am44 °FSunny.6 mph79%29.89 "Hg10 mi
6:56 am44 °FSunny.7 mph80%29.90 "Hg10 mi
6:36 am43 °FSunny.7 mph83%29.89 "Hg10 mi
6:18 am43 °FSunny.6 mph81%29.90 "Hg10 mi
5:55 am43 °FSunny.7 mph81%29.90 "Hg10 mi
5:35 am44 °FSunny.7 mph80%29.90 "Hg10 mi
5:16 am43 °FSunny.6 mph82%29.90 "Hg10 mi
4:57 am43 °FSunny.6 mph81%29.90 "Hg10 mi
4:39 am44 °FSunny.6 mph80%29.90 "Hg10 mi
4:15 am43 °FSunny.6 mph81%29.90 "Hg10 mi
3:56 am43 °FSunny.6 mph83%29.90 "Hg10 mi
3:36 am42 °FSunny.6 mph85%29.90 "Hg10 mi
3:18 am42 °FSunny.6 mph86%29.90 "Hg10 mi
2:55 am42 °FClear.7 mph86%29.91 "Hg10 mi
2:36 am42 °FClear.7 mph85%29.91 "Hg10 mi
2:16 am42 °FClear.5 mph86%29.92 "Hg10 mi
1:57 am42 °FClear.5 mph87%29.92 "Hg10 mi
1:39 am42 °FClear.5 mph86%29.93 "Hg10 mi
1:15 am43 °FClear.6 mph85%29.93 "Hg10 mi
12:56 am42 °FClear.5 mph86%29.93 "Hg10 mi
12:35 am42 °FClear.5 mph88%29.93 "Hg10 mi
12:18 am42 °FClear.5 mph88%29.93 "Hg10 mi
11:55 pm
Fri, Oct 18
42 °FClear.5 mph89%29.93 "Hg10 mi
11:35 pm42 °FClear.6 mph90%29.94 "Hg10 mi
11:16 pm42 °FClear.No wind90%29.94 "Hg10 mi
10:37 pm42 °FClear.No wind90%29.95 "Hg10 mi
10:19 pm41 °FClear.No wind93%29.95 "Hg10 mi
9:55 pm41 °FClear.No wind93%29.95 "Hg10 mi
9:36 pm42 °FClear.No wind93%29.95 "Hg10 mi
9:16 pm43 °FClear.No wind88%29.95 "Hg10 mi
8:58 pm43 °FClear.No wind89%29.95 "Hg10 mi
8:35 pm46 °FClear.No wind77%29.95 "Hg10 mi
8:15 pm46 °FClear.No wind77%29.95 "Hg10 mi
7:56 pm47 °FClear.3 mph75%29.95 "Hg10 mi
7:37 pm48 °FClear.5 mph74%29.96 "Hg10 mi
7:19 pm49 °FClear.5 mph73%29.96 "Hg10 mi
6:55 pm50 °FClear.6 mph71%29.96 "Hg10 mi
6:35 pm51 °FClear.6 mph71%29.97 "Hg10 mi
6:16 pm51 °FClear.9 mph69%29.97 "Hg10 mi
Weather by CustomWeather, © 2019

See weather overview